Hourly Weather Roundup
Issued by NWS Central Illinois

Home | Current Version | Previous Version | Text Only | Print | Product List | Glossary On
Versions: 1 2 3 4 5 6 7 8 9 10 11 12 13 14 15 16 17 18 19 20 21 22 23 24 25 26 27 28 29 30 31 32 33 34 35 36 37 38 39 40 41 42 43 44 45 46 47 48 49 50
000
NZUS43 KILX 270110
HWRILX

AREA WEATHER ROUNDUP
NATIONAL WEATHER SERVICE, LINCOLN IL
700 PM CST THU FEB 26 2015


CITY           SKY/WX    TMP DP  RH WIND       PRES   REMARKS
BLOOMINGTON    CLOUDY    12   4  70 N12       30.38R WCI  -2
CHAMPAIGN      PTCLDY    12   6  77 NW13      30.36R WCI  -3
DECATUR        CLOUDY    17   9  70 N13       30.38R WCI   4
FLORA          CLOUDY    21  14  75 N10       30.37R WCI  10
GALESBURG      CLEAR      3  -4  72 NW6       30.43R WCI  -8
JACKSONVILLE   MOCLDY    13   3  63 NW13      30.45R WCI  -1
LACON          CLOUDY    11   1  64 N8        30.42R WCI  -1
LAWRENCEVILLE  CLEAR     20  10  65 N13       30.35R WCI   7
LITCHFIELD     CLOUDY    15   8  75 NW12      30.41R WCI   1
$$


CITY           SKY/WX    TMP DP  RH WIND       PRES   REMARKS
LINCOLN        CLOUDY    16   9  75 NW7       30.44R WCI   6
MACOMB         CLEAR      3  -3  76 NW13      30.48R WCI -15
MATTOON        CLOUDY    15   8  73 N8        30.35R WCI   4
MT CARMEL AP   CLEAR     23  10  58 N13       30.35R WCI  11
OLNEY-NOBLE AP CLEAR     19  12  73 N9        30.37R WCI   9
PARIS          CLEAR     15   7  71 CALM      30.35R
PEORIA         CLOUDY    12   5  73 VRB3      30.42R
PONTIAC        CLOUDY    12   4  70 NW14      30.39R WCI  -3
RANTOUL        PTCLDY    13   8  79 NW8       30.36R WCI   2
ROBINSON       CLEAR     18  10  70 NW8       30.36R WCI   8
SPRINGFIELD    CLOUDY    14   5  67 NW16      30.42R WCI  -2
TAYLORVILLE    FLURRIES  18  10  73 NW16      30.40R WCI   3
$$

...REGIONAL REPORTS...


CITY           SKY/WX    TMP DP  RH WIND       PRES   REMARKS
CHICAGO O`HARE PTCLDY     9  -5  53 NW12      30.36R WCI  -6
KANKAKEE       CLOUDY    12   3  67 NW8       30.36R WCI   1
MOLINE         CLEAR      7  -3  64 NW12      30.44R WCI  -8
MOUNT VERNON   MOCLDY    19   9  63 CALM      30.38R
PITTSFIELD     CLEAR     10   1  67 NW9       30.47R WCI  -3
QUINCY         CLEAR      6  -5  60 NW9       30.46R WCI  -8
ROCKFORD       CLEAR      7  -6  55 NW6       30.40R WCI  -3
$$


CITY           SKY/WX    TMP DP  RH WIND       PRES   REMARKS
BURLINGTON     CLEAR      6  -4  63 NW10      30.47R WCI  -9
CEDAR RAPIDS   CLEAR     -1  -8  72 NW13      30.45R WCI -19
DES MOINES     PTCLDY     6  -5  60 N13       30.51R WCI -10
KIRKSVILLE     CLEAR      8  -4  58 NW8       30.48R WCI  -4
OTTUMWA        CLEAR      2  -7  66 NW15      30.49R WCI -17
ST LOUIS       MOCLDY    18   4  54 NW15      30.43R WCI   4
$$


CITY           SKY/WX    TMP DP  RH WIND       PRES   REMARKS
TERRE HAUTE    PTCLDY    16   5  62 N8        30.34R WCI   5
EVANSVILLE     CLEAR     24  12  60 NW14G21   30.34R WCI  12
INDIANAPOLIS   LGT SNOW  17  10  74 N13       30.29R WCI   4
LAFAYETTE      CLEAR     11   3  70 CALM      30.34R
MADISON        CLEAR      7  -7  52 NW5       30.37R WCI  -2
MILWAUKEE      PTCLDY    10  -6  48 NW9       30.37R WCI  -3
$$




USA.gov is the U.S. government's official web portal to all federal, state and local government web resources and services.